User: anonymous   Login
Location: Goheenville
(40.9070°N, 79.3720°W)
Time: 17:15:36
(UTC-05:00)
Language:

Cosmos 1633 - Orbit

View from above orbital plane
View from above orbital plane
View from above satellite
View from above satellite

Ground track
Ground track

The orbit data is extracted from the following two-line orbital elements,

1 15592U 85020A   16336.76368116  .00001958  00000-0  70614-4 0  9999
2 15592  82.5369 157.0140 0014518 149.9495 210.2580 15.27803256734141
Epoch (UTC): 01 December 2016 18:19:42
Eccentricity: 0.0014518
inclination: 82.5369°
perigee height: 472 km
apogee height: 492 km
right ascension of ascending node: 157.0140°
argument of perigee: 149.9495°
revolutions per day: 15.27803256
mean anomaly at epoch: 210.2580°
orbit number at epoch: 73414

The dashed part of the orbit path shows where the satellite is in the earth's shadow,  

DLR